Weather History for Fort Nelson, BC

Change the Weather History Date:

Saturday, October 8, 2011

  Actual Average Record
Temperature  
Mean Temperature 42 °F -  
Max Temperature 54 °F 36 °F 60 °F (2003)
Min Temperature 29 °F 18 °F 17 °F (1997)
Degree Days  
Heating Degree Days 24    
Moisture  
Dew Point 26 °F    
Average Humidity 55    
Maximum Humidity 81    
Minimum Humidity 19    
Precipitation  
Precipitation 0.04 in 0.04 in - ()
Sea Level Pressure  
Sea Level Pressure 29.89 in    
Wind  
Wind Speed 5 mph ()    
Max Wind Speed 8 mph    
Max Gust Speed -    
Visibility 15.8 miles    
Events Rain    
Averages and records for this station are not official NWS values.
T = Trace of Precipitation, MM = Missing Value Source: Averaged Metar Reports

Daily Weather History Graph

Daily Weather History Graph

Search for Another Location

Airport:

Trip Planner

Search our weather history database for the weather conditions in past years. The results will help you decide how hot, cold, wet, or windy it might be!

Date:

Astronomy

Oct. 08, 2011 Rise Set
Actual Time 7:30 AM PDT 6:23 PM PDT
Civil Twilight 6:50 AM PDT 7:04 PM PDT
Nautical Twilight 6:03 AM PDT 7:50 PM PDT
Astronomical Twilight 5:16 AM PDT 8:38 PM PDT
Moon 5:03 PM PDT (10/8) 3:48 AM PDT (10/8)
Length of Visible Light 12h 13m
Length of Day
10h 53m
Waxing Gibbous, 90% of the Moon is Illuminated
Oct 8
Waxing Gibbous
Oct 11
Full
Oct 19
Last Quarter
Oct 26
New
Nov 2
First Quarter

Hourly Weather History & Observations

Time (PDT) Temp. Windchill Dew Point Humidity Pressure Visibility Wind Dir Wind Speed Gust Speed Precip Events Conditions
12:00 AM 30.2 °F 26.7 °F 23.0 °F 75% 29.97 in 15.0 mi SSW 3.5 mph - N/A   Partly Cloudy
2:00 AM 35.6 °F 30.7 °F 24.8 °F 65% 29.97 in 15.0 mi South 5.8 mph - N/A   Partly Cloudy
3:00 AM 32.0 °F 24.8 °F 24.8 °F 75% 29.98 in 15.0 mi SSE 8.1 mph - N/A   Partly Cloudy
4:00 AM 32.0 °F 26.4 °F 23.0 °F 69% 29.98 in 15.0 mi South 5.8 mph - N/A   Clear
5:00 AM 31 °F - 24 °F 65% 29.99 in 15 mi South 5.8 mph - -   Scattered Clouds
6:00 AM 32.0 °F 24.8 °F 23.0 °F 69% 29.99 in 15.0 mi SSW 8.1 mph - N/A   Partly Cloudy
7:00 AM 28.4 °F 22.2 °F 23.0 °F 80% 29.99 in 15.0 mi South 5.8 mph - N/A   Partly Cloudy
8:00 AM 30.2 °F 24.3 °F 23.0 °F 75% 30.00 in 30.0 mi South 5.8 mph - N/A   Partly Cloudy
9:00 AM 32.0 °F 26.4 °F 23.0 °F 69% 29.99 in 30.0 mi South 5.8 mph - N/A   Partly Cloudy
10:00 AM 35.6 °F 32.8 °F 24.8 °F 65% 29.98 in 30.0 mi South 3.5 mph - N/A   Scattered Clouds
11:00 AM 42 °F - 26 °F 40% 29.97 in 28 mi SE 3.5 mph - -   Clear
11:00 AM 41.0 °F 39.0 °F 26.6 °F 57% 29.97 in 30.0 mi SE 3.5 mph - N/A   Partly Cloudy
12:00 PM 46.4 °F - 26.6 °F 46% 29.96 in 30.0 mi Calm Calm - N/A   Partly Cloudy
1:00 PM 50.0 °F - 28.4 °F 43% 29.94 in 30.0 mi Calm Calm - N/A   Scattered Clouds
2:00 PM 53.6 °F - 26.6 °F 35% 29.89 in 30.0 mi Calm Calm - N/A   Scattered Clouds
3:00 PM 53.6 °F - 28.4 °F 38% 29.86 in 30.0 mi NE 4.6 mph - N/A   Scattered Clouds
4:00 PM 53.6 °F - 23.0 °F 30% 29.84 in 30.0 mi SE 8.1 mph - N/A   Overcast
5:00 PM 53 °F - 23 °F 19% 29.81 in 19 mi SE 8.1 mph - -   Overcast
5:00 PM 51.8 °F - 23.0 °F 33% 29.81 in 20.0 mi SE 8.1 mph - N/A   Overcast
6:00 PM 51.8 °F - 23.0 °F 33% 29.79 in 20.0 mi ESE 4.6 mph - N/A   Overcast
7:00 PM 50.0 °F - 24.8 °F 37% 29.77 in 15.0 mi ESE 8.1 mph - N/A   Overcast
8:00 PM 50.0 °F - 24.8 °F 37% 29.75 in 15.0 mi SSE 6.9 mph - N/A   Overcast
9:00 PM 48.2 °F - 28.4 °F 46% 29.75 in 15.0 mi SSE 5.8 mph - N/A   Overcast
9:16 PM - - - N/A% - 15.0 mi SSE 5.8 mph - N/A Rain Light Rain Showers
10:00 PM 42.8 °F 38.6 °F 35.6 °F 76% 29.74 in 15.0 mi SE 6.9 mph - N/A Rain Light Rain Showers
11:00 PM 42 °F - 38 °F 79% 29.70 in 15 mi ESE 4.6 mph - - Rain Light Rain Showers
11:00 PM 42.8 °F 40.1 °F 37.4 °F 81% 29.70 in 15.0 mi ESE 4.6 mph - N/A Rain Light Rain Showers